When you browse on this site, cookies collect data to enhance your experience and personalize the content and advertising you see.
Visit our Privacy Policy to learn more. By continuing to use the site, you agree to this use of cookies and data.
  • In Czech Republic
  • List of Countries
  • For 7 days
  • Water Temperature
  • Satellite Maps
  • Weather Map
  • Weather Widgets
  • user-avatar
    Login

    Hourly Weather Belmopan

    Today, 23 March, Saturday

    Time Temperature Precipitation Wind Pressure Humidity
    00:00 +22°C° 0 mm 1 mps 756 mmHg 91%
    01:00 +19°C° 0 mm 0 mps 756 mmHg 92%
    02:00 +19°C° 0 mm 0 mps 755 mmHg 93%
    03:00 +19°C° 0 mm 0 mps 755 mmHg 94%
    04:00 +19°C° 0 mm 0 mps 755 mmHg 95%
    05:00 +18°C° 0 mm 0 mps 755 mmHg 95%
    06:00 +18°C° 0 mm 0 mps 756 mmHg 96%
    07:00 +23°C° 0 mm 1 mps 756 mmHg 83%
    08:00 +26°C° 0 mm 1 mps 756 mmHg 70%
    09:00 +28°C° 0 mm 1 mps 757 mmHg 57%
    10:00 +29°C° 0 mm 2 mps 757 mmHg 53%
    11:00 +30°C° 0 mm 2 mps 756 mmHg 48%
    12:00 +31°C° 0 mm 2 mps 756 mmHg 44%
    13:00 +31°C° 0 mm 2 mps 756 mmHg 44%
    14:00 +31°C° 0 mm 3 mps 755 mmHg 43%
    15:00 +33°C° 0 mm 3 mps 754 mmHg 43%
    16:00 +30°C° 0 mm 2 mps 754 mmHg 49%
    17:00 +28°C° 0 mm 2 mps 754 mmHg 54%
    18:00 +26°C° 0 mm 2 mps 754 mmHg 60%
    19:00 +24°C° 0 mm 2 mps 755 mmHg 65%
    20:00 +23°C° 0 mm 1 mps 755 mmHg 70%
    21:00 +21°C° 0 mm 1 mps 756 mmHg 75%
    22:00 +21°C° 0 mm 1 mps 756 mmHg 77%
    23:00 +21°C° 0 mm 1 mps 756 mmHg 79%

    Tomorrow, 24 March, Sunday

    Time Temperature Precipitation Wind Pressure Humidity
    00:00 +20°C° 0 mm 1 mps 756 mmHg 80%
    01:00 +20°C° 0 mm 1 mps 756 mmHg 82%
    02:00 +19°C° 0 mm 1 mps 755 mmHg 84%
    03:00 +17°C° 0 mm 0 mps 755 mmHg 85%
    04:00 +17°C° 0 mm 0 mps 755 mmHg 86%
    05:00 +17°C° 0 mm 0 mps 755 mmHg 87%
    06:00 +17°C° 0 mm 0 mps 755 mmHg 88%
    07:00 +22°C° 0 mm 1 mps 756 mmHg 76%
    08:00 +25°C° 0 mm 1 mps 756 mmHg 64%
    09:00 +29°C° 0 mm 1 mps 757 mmHg 52%
    10:00 +30°C° 0 mm 1 mps 757 mmHg 48%
    11:00 +32°C° 0 mm 2 mps 756 mmHg 44%
    12:00 +34°C° 0 mm 2 mps 756 mmHg 39%
    13:00 +34°C° 0 mm 2 mps 755 mmHg 40%
    14:00 +34°C° 0 mm 2 mps 754 mmHg 40%
    15:00 +34°C° 0 mm 2 mps 753 mmHg 41%
    16:00 +31°C° 0 mm 2 mps 753 mmHg 49%
    17:00 +30°C° 0 mm 2 mps 753 mmHg 58%
    18:00 +28°C° 0 mm 2 mps 753 mmHg 66%
    19:00 +26°C° 0 mm 1 mps 754 mmHg 75%
    20:00 +24°C° 0 mm 1 mps 754 mmHg 83%
    21:00 +23°C° 0 mm 1 mps 755 mmHg 91%
    22:00 +22°C° 0 mm 1 mps 755 mmHg 92%
    23:00 +22°C° 0 mm 1 mps 755 mmHg 93%

    Day after tomorrow, 25 March, Monday

    Time Temperature Precipitation Wind Pressure Humidity
    00:00 +22°C° 0 mm 1 mps 755 mmHg 95%
    01:00 +21°C° 0 mm 1 mps 754 mmHg 95%
    02:00 +19°C° 0 mm 0 mps 754 mmHg 96%
    03:00 +19°C° 0 mm 0 mps 753 mmHg 96%
    04:00 +19°C° 0 mm 0 mps 753 mmHg 97%
    05:00 +19°C° 0 mm 0 mps 753 mmHg 97%
    06:00 +19°C° 0 mm 0 mps 754 mmHg 97%
    07:00 +22°C° 0 mm 0 mps 754 mmHg 86%
    08:00 +26°C° 0 mm 1 mps 755 mmHg 74%
    09:00 +29°C° 0 mm 1 mps 755 mmHg 63%
    10:00 +31°C° 0 mm 1 mps 755 mmHg 57%
    11:00 +33°C° 0 mm 1 mps 755 mmHg 50%
    12:00 +35°C° 0 mm 1 mps 754 mmHg 44%
    13:00 +34°C° 0.1 mm 1 mps 753 mmHg 46%
    14:00 +33°C° 0.1 mm 1 mps 752 mmHg 49%
    15:00 +34°C° 0.1 mm 2 mps 752 mmHg 51%
    16:00 +31°C° 0 mm 2 mps 752 mmHg 56%
    17:00 +30°C° 0 mm 2 mps 752 mmHg 61%
    18:00 +29°C° 0 mm 1 mps 752 mmHg 66%
    19:00 +27°C° 0 mm 1 mps 753 mmHg 74%
    20:00 +26°C° 0 mm 1 mps 753 mmHg 82%
    21:00 +24°C° 0 mm 1 mps 754 mmHg 90%
    22:00 +24°C° 0 mm 1 mps 754 mmHg 92%
    23:00 +23°C° 0 mm 1 mps 754 mmHg 94%

    26 March, Tuesday

    Time Temperature Precipitation Wind Pressure Humidity
    00:00 +23°C° 0 mm 1 mps 754 mmHg 96%
    01:00 +23°C° 0 mm 1 mps 753 mmHg 97%
    02:00 +20°C° 0 mm 0 mps 753 mmHg 97%
    03:00 +20°C° 0 mm 0 mps 753 mmHg 97%
    04:00 +20°C° 0 mm 0 mps 753 mmHg 98%
    05:00 +20°C° 0 mm 0 mps 753 mmHg 98%
    06:00 +20°C° 0 mm 0 mps 754 mmHg 99%
    07:00 +22°C° 0.1 mm 0 mps 754 mmHg 89%
    08:00 +25°C° 0.1 mm 0 mps 755 mmHg 79%
    09:00 +27°C° 0.1 mm 0 mps 756 mmHg 68%
    10:00 +30°C° 0.3 mm 1 mps 755 mmHg 63%
    11:00 +32°C° 0.3 mm 1 mps 755 mmHg 58%
    12:00 +34°C° 0.3 mm 2 mps 755 mmHg 52%
    13:00 +34°C° 0.3 mm 2 mps 754 mmHg 52%
    14:00 +34°C° 0.3 mm 2 mps 753 mmHg 51%
    15:00 +34°C° 0.3 mm 2 mps 752 mmHg 50%
    16:00 +31°C° 0 mm 2 mps 753 mmHg 55%
    17:00 +30°C° 0 mm 2 mps 753 mmHg 60%
    18:00 +28°C° 0 mm 2 mps 753 mmHg 65%
    19:00 +27°C° 0 mm 1 mps 754 mmHg 73%
    20:00 +25°C° 0 mm 1 mps 754 mmHg 82%
    21:00 +24°C° 0 mm 1 mps 755 mmHg 90%
    22:00 +24°C° 0 mm 1 mps 755 mmHg 92%
    23:00 +23°C° 0 mm 1 mps 755 mmHg 94%

    27 March, Wednesday

    Time Temperature Precipitation Wind Pressure Humidity
    00:00 +21°C° 0 mm 0 mps 755 mmHg 97%
    01:00 +21°C° 0 mm 0 mps 754 mmHg 97%
    02:00 +21°C° 0 mm 0 mps 754 mmHg 98%
    03:00 +21°C° 0 mm 0 mps 754 mmHg 99%
    04:00 +20°C° 0.3 mm 0 mps 754 mmHg 99%
    05:00 +20°C° 0.3 mm 0 mps 755 mmHg 99%
    06:00 +20°C° 0.3 mm 0 mps 755 mmHg 99%
    07:00 +22°C° 0.1 mm 0 mps 756 mmHg 91%
    08:00 +26°C° 0.1 mm 1 mps 756 mmHg 83%
    09:00 +28°C° 0.1 mm 1 mps 757 mmHg 75%
    10:00 +30°C° 0 mm 2 mps 756 mmHg 64%
    11:00 +32°C° 0 mm 2 mps 756 mmHg 52%
    12:00 +34°C° 0 mm 2 mps 755 mmHg 41%
    13:00 +34°C° 0 mm 2 mps 755 mmHg 41%
    14:00 +34°C° 0 mm 3 mps 754 mmHg 41%
    15:00 +34°C° 0 mm 3 mps 753 mmHg 42%
    16:00 +31°C° 0 mm 3 mps 754 mmHg 49%
    17:00 +30°C° 0 mm 2 mps 754 mmHg 57%
    18:00 +28°C° 0 mm 2 mps 754 mmHg 65%
    19:00 +26°C° 0 mm 2 mps 755 mmHg 73%
    20:00 +25°C° 0 mm 1 mps 755 mmHg 81%
    21:00 +23°C° 0 mm 1 mps 756 mmHg 89%
    22:00 +23°C° 0 mm 1 mps 755 mmHg 92%
    23:00 +23°C° 0 mm 1 mps 755 mmHg 94%

    28 March, Thursday

    Time Temperature Precipitation Wind Pressure Humidity
    00:00 +20°C° 0 mm 0 mps 755 mmHg 96%
    01:00 +20°C° 0 mm 0 mps 755 mmHg 97%
    02:00 +20°C° 0 mm 0 mps 755 mmHg 97%
    03:00 +19°C° 0 mm 0 mps 754 mmHg 98%
    04:00 +19°C° 0 mm 0 mps 755 mmHg 98%
    05:00 +20°C° 0 mm 0 mps 755 mmHg 98%
    06:00 +20°C° 0 mm 0 mps 756 mmHg 98%
    07:00 +22°C° 0.1 mm 0 mps 756 mmHg 87%
    08:00 +26°C° 0.1 mm 1 mps 757 mmHg 76%
    09:00 +28°C° 0.1 mm 1 mps 757 mmHg 65%
    10:00 +29°C° 0.1 mm 1 mps 756 mmHg 63%
    11:00 +30°C° 0.1 mm 2 mps 756 mmHg 60%
    12:00 +30°C° 0.1 mm 2 mps 755 mmHg 57%
    13:00 +31°C° 0.1 mm 2 mps 755 mmHg 54%
    14:00 +31°C° 0.1 mm 2 mps 754 mmHg 51%
    15:00 +32°C° 0.1 mm 2 mps 753 mmHg 48%
    16:00 +30°C° 0 mm 2 mps 754 mmHg 53%
    17:00 +29°C° 0 mm 2 mps 754 mmHg 59%
    18:00 +27°C° 0 mm 2 mps 754 mmHg 64%
    19:00 +26°C° 0 mm 1 mps 754 mmHg 71%
    20:00 +24°C° 0 mm 1 mps 755 mmHg 78%
    21:00 +23°C° 0 mm 1 mps 755 mmHg 84%
    22:00 +23°C° 0 mm 1 mps 755 mmHg 87%
    23:00 +22°C° 0 mm 1 mps 755 mmHg 89%
    Show more